Overview Statistics Trail Chart Weather Telemetry Raw packets
 

This is the latest recevied weather packets stored in our database for station/object VK6WB. If no packets are shown the sender has not sent any weather packets the latest 10 day(s).

<< 2 3 4 5 6 7 8 >>
Time Temp. Humidity Pressure Rain* Wind** Luminosity Snow
1777700405 19.44° C 35% 1020.4 hPa 0 mm - 10 W/m² -
1777699804 18.89° C 36% 1020.3 hPa 0 mm - 10 W/m² -
1777699204 18.33° C 40% 1020.4 hPa 0 mm - 10 W/m² -
1777698604 17.78° C 39% 1020.7 hPa 0 mm - 10 W/m² -
1777698005 17.22° C 40% 1020.9 hPa 0 mm - 10 W/m² -
1777697404 17.22° C 40% 1021.1 hPa 0 mm - 10 W/m² -
1777696805 17.22° C 38% 1021.3 hPa 0 mm - 10 W/m² -
1777696204 17.78° C 35% 1021.5 hPa 0 mm - 10 W/m² -
1777695604 17.22° C 38% 1021.6 hPa 0 mm - 10 W/m² -
1777695004 17.78° C 34% 1022 hPa 0 mm - 10 W/m² -
1777694405 17.22° C 33% 1022 hPa 0 mm - 10 W/m² -
1777693804 17.22° C 33% 1022.1 hPa 0 mm - 10 W/m² -
1777693204 17.22° C 31% 1022.1 hPa 0 mm - 10 W/m² -
1777692605 17.22° C 30% 1022.5 hPa 0 mm - 10 W/m² -
1777692004 17.22° C 30% 1022.5 hPa 0 mm - 10 W/m² -
1777691404 17.22° C 28% 1022.5 hPa 0 mm - 10 W/m² -
1777690804 16.67° C 28% 1022.6 hPa 0 mm - 10 W/m² -
1777690204 16.67° C 27% 1022.5 hPa 0 mm - 10 W/m² -
1777689604 16.67° C 23% 1022.5 hPa 0 mm - 10 W/m² -
1777689004 16.67° C 22% 1022.6 hPa 0 mm - 10 W/m² -
1777688404 16.67° C 23% 1022.6 hPa 0 mm - 10 W/m² -
1777687804 16.67° C 20% 1022.8 hPa 0 mm - 10 W/m² -
1777687204 16.67° C 19% 1022.7 hPa 0 mm - 10 W/m² -
1777686604 16.11° C 16% 1022.6 hPa 0 mm - 10 W/m² -
1777686003 16.11° C 15% 1022.8 hPa 0 mm - 10 W/m² -

* Rain latest hour (hover to see other rain measurements)
** Current wind speed in m/s (hover to see current wind gust speed)